Location: IoMAS Observatory
(54.1780°N, 4.6265°W)
Time: 19:05:10
(UTC+01:00)

ISS - Pass Details

Date: 02 December 2021
Orbit: 413 x 422 km, 51.6° (Epoch: 23 January)

Event Time Altitude Azimuth Distance (km) Brightness Sun altitude
Rises 17:46:17 0° 263° (W) 2,385 1.6 -6.6°
Reaches altitude 10° 17:48:24 10° 259° (W) 1,518 0.5 -6.9°
Maximum altitude 17:51:45 56° 180° (S) 510 -3.1 -7.3°
Drops below altitude 10° 17:55:05 10° 102° (ESE) 1,512 -1.4 -7.7°
Enters shadow 17:55:56 - 100° (E) 1,849 -1.0 -7.8°
